User: anonymous   Login
Location: Vigo di Fassa
(46.4167°N, 11.6667°E)
Time: 21:36:35
(UTC+00:00)
Language:

Cosmos 2360 Rocket - Orbit

View from above orbital plane
View from above orbital plane
View from above satellite
View from above satellite

Ground track
Ground track

The orbit data is extracted from the following two-line orbital elements,

1 25407U 98045B   21129.53613826 -.00000099  00000-0 -26171-4 0  9994
2 25407  71.0108 292.2852 0008431 211.3665 148.6956 14.15840068177233
Epoch (UTC): 09 May 2021 12:52:02
Eccentricity: 0.0008431
inclination: 71.0108°
perigee height: 833 km
apogee height: 845 km
right ascension of ascending node: 292.2852°
argument of perigee: 211.3665°
revolutions per day: 14.15840068
mean anomaly at epoch: 148.6956°
orbit number at epoch: 17723

The dashed part of the orbit path shows where the satellite is in the earth's shadow,  

DLR